Location: Albuquerque Trailhead
(34.7934°N, 106.3736°W)
Time: 20:53:56
(UTC+00:00)

NOAA 19 - Pass Details

Date: 06 April 2023
Orbit: 840 x 859 km, 99.1° (Epoch: 31 May)

Event Time Altitude Azimuth Distance (km) Brightness Sun altitude
Exits shadow 03:48:13 16° 205° (SSW) 2,091 7.2 -27.5°
Maximum altitude 03:51:59 33° 262° (W) 1,375 6.6 -28.2°
Drops below altitude 10° 03:56:53 10° 326° (NW) 2,465 8.4 -29.0°
Sets 03:59:30 0° 336° (NNW) 3,402 9.2 -29.5°
